Location: Pordenone
(45.9640°N, 12.6580°E)
Time: 03:34:12
(UTC+02:00)

ISS - Pass Details

Date: 21 May 2021
Orbit: 417 x 422 km, 51.6° (Epoch: 14 June)

Event Time Altitude Azimuth Distance (km) Brightness Sun altitude
Rises 22:07:37 0° 278° (W) 2,363 0.9 -12.4°
Reaches altitude 10° 22:09:52 10° 289° (WNW) 1,501 0.1 -12.6°
Maximum altitude 22:12:55 31° 354° (N) 768 -1.8 -13.0°
Drops below altitude 10° 22:15:58 10° 59° (ENE) 1,505 -1.0 -13.3°
Sets 22:18:14 0° 70° (ENE) 2,371 -0.1 -13.6°
